This is the latest recevied weather packets stored in our database for station/object K7FED. If no packets are shown the sender has not sent any weather packets the latest 10 day(s).
| Time | Temp. | Humidity | Pressure | Rain* | Wind** | Luminosity | Snow |
|---|---|---|---|---|---|---|---|
| 1778091861 | 20.56° C | 61% | 1018.5 hPa | 0 mm | - | 107 W/m² | - |
| 1778091560 | 20.56° C | 60% | 1018.5 hPa | 0 mm | - | 360 W/m² | - |
| 1778091260 | 20.56° C | 60% | 1018.5 hPa | 0 mm | - | 53 W/m² | - |
| 1778090961 | 20° C | 61% | 1018.4 hPa | 0 mm | - | 141 W/m² | - |
| 1778090660 | 20° C | 62% | 1018.4 hPa | 0 mm | - | 162 W/m² | - |
| 1778090360 | 20° C | 60% | 1018.4 hPa | 0 mm | - | 65 W/m² | - |
| 1778090060 | 20° C | 63% | 1018.5 hPa | 0 mm | - | 82 W/m² | - |
| 1778089759 | 19.44° C | 63% | 1018.5 hPa | 0 mm | - | 195 W/m² | - |
| 1778089460 | 18.89° C | 64% | 1018.6 hPa | 0 mm | - | 164 W/m² | - |
| 1778089150 | 19.44° C | 63% | 1018.6 hPa | 0 mm | - | 60 W/m² | - |
| 1778088846 | 18.89° C | 64% | 1018.5 hPa | 0 mm | - | 46 W/m² | - |
| 1778088547 | 18.89° C | 64% | 1018.5 hPa | 0 mm | - | 48 W/m² | - |
| 1778088247 | 18.89° C | 65% | 1018.5 hPa | 0 mm | - | 57 W/m² | - |
| 1778087947 | 18.89° C | 66% | 1018.5 hPa | 0 mm | - | 64 W/m² | - |
| 1778087647 | 18.33° C | 65% | 1018.5 hPa | 0 mm | - | 51 W/m² | - |
| 1778087348 | 18.33° C | 67% | 1018.5 hPa | 0 mm | - | 135 W/m² | - |
| 1778087048 | 18.33° C | 66% | 1018.5 hPa | 0 mm | - | 47 W/m² | - |
| 1778086734 | 18.33° C | 67% | 1018.5 hPa | 0 mm | - | 42 W/m² | - |
| 1778086433 | 17.78° C | 67% | 1018.5 hPa | 0 mm | - | 47 W/m² | - |
| 1778086120 | 17.78° C | 67% | 1018.5 hPa | 0 mm | - | 45 W/m² | - |
| 1778085817 | 17.78° C | 68% | 1018.6 hPa | 0 mm | - | 47 W/m² | - |
| 1778085502 | 17.22° C | 68% | 1018.5 hPa | 0 mm | - | 79 W/m² | - |
| 1778085202 | 17.22° C | 69% | 1018.6 hPa | 0 mm | - | 72 W/m² | - |
| 1778084903 | 17.22° C | 69% | 1018.6 hPa | 0 mm | - | 80 W/m² | - |
| 1778084603 | 17.22° C | 70% | 1018.6 hPa | 0 mm | - | 94 W/m² | - |
* Rain latest hour (hover to see other rain measurements)
** Current wind speed in m/s (hover to see current wind gust speed)